Time,TemperatureF,DewpointF,PressureIn,WindDirection,WindDirectionDegrees,WindSpeedMPH,WindSpeedGustMPH,Humidity,HourlyPrecipIn,Conditions,Clouds,dailyrainin,SoftwareType,DateUTC
2013-07-19 00:01:00,75.2,73.9,30.12,North,-999,-999.0,-999.0,96,30.69,,,99.99,meteohub,2013-07-19 04:01:00,
2013-07-19 00:02:00,75.2,73.9,30.12,North,-999,-999.0,-999.0,96,30.69,,,99.99,meteohub,2013-07-19 04:02:00,
2013-07-19 00:07:00,75.4,74.1,30.12,North,-999,-999.0,-999.0,96,31.16,,,0.00,meteohub,2013-07-19 04:07:00,
2013-07-19 00:12:00,75.4,74.1,30.11,North,-999,-999.0,-999.0,96,34.50,,,4.46,meteohub,2013-07-19 04:12:00,
2013-07-19 00:18:00,75.4,74.1,30.11,North,-999,-999.0,-999.0,96,32.40,,,5.88,meteohub,2013-07-19 04:18:00,
2013-07-19 00:23:00,75.4,74.1,30.11,North,-999,-999.0,-999.0,96,29.36,,,6.34,meteohub,2013-07-19 04:23:00,
2013-07-19 00:28:00,75.4,74.1,30.11,North,-999,-999.0,-999.0,96,26.99,,,8.59,meteohub,2013-07-19 04:28:00,
2013-07-19 00:33:00,75.4,74.1,30.11,North,-999,-999.0,-999.0,96,25.42,,,12.06,meteohub,2013-07-19 04:33:00,
2013-07-19 00:38:00,75.4,74.1,30.11,North,-999,-999.0,-999.0,96,21.27,,,12.26,meteohub,2013-07-19 04:38:00,
2013-07-19 00:43:00,75.4,74.1,30.11,North,-999,-999.0,-999.0,96,20.50,,,13.96,meteohub,2013-07-19 04:43:00,
2013-07-19 00:48:00,75.4,74.1,30.11,North,-999,-999.0,-999.0,96,20.03,,,16.02,meteohub,2013-07-19 04:48:00,
2013-07-19 00:53:00,75.4,74.1,30.11,North,-999,-999.0,-999.0,96,19.54,,,17.07,meteohub,2013-07-19 04:53:00,
2013-07-19 00:58:00,75.2,73.9,30.11,North,-999,-999.0,-999.0,96,18.78,,,17.60,meteohub,2013-07-19 04:58:00,
2013-07-19 01:03:00,75.2,73.9,30.10,North,-999,-999.0,-999.0,96,19.20,,,19.20,meteohub,2013-07-19 05:03:00,
2013-07-19 01:08:00,75.2,73.9,30.11,North,-999,-999.0,-999.0,96,16.58,,,20.17,meteohub,2013-07-19 05:08:00,
2013-07-19 01:13:00,75.2,73.9,30.11,North,-999,-999.0,-999.0,96,15.06,,,20.39,meteohub,2013-07-19 05:13:00,
2013-07-19 01:18:00,75.2,74.3,30.10,North,-999,-999.0,-999.0,97,15.45,,,21.79,meteohub,2013-07-19 05:18:00,
2013-07-19 01:23:00,75.0,74.1,30.10,North,-999,-999.0,-999.0,97,15.96,,,22.48,meteohub,2013-07-19 05:23:00,
2013-07-19 01:29:00,75.0,74.1,30.10,North,-999,-999.0,-999.0,97,14.35,,,24.85,meteohub,2013-07-19 05:29:00,
2013-07-19 01:34:00,75.0,74.1,30.10,North,-999,-999.0,-999.0,97,14.22,,,26.47,meteohub,2013-07-19 05:34:00,
2013-07-19 01:39:00,75.0,74.1,30.09,North,-999,-999.0,-999.0,97,14.34,,,26.60,meteohub,2013-07-19 05:39:00,
2013-07-19 01:44:00,74.8,73.9,30.10,North,-999,-999.0,-999.0,97,12.48,,,27.90,meteohub,2013-07-19 05:44:00,
2013-07-19 01:49:00,74.8,73.9,30.10,North,-999,-999.0,-999.0,97,13.02,,,29.13,meteohub,2013-07-19 05:49:00,
2013-07-19 01:54:00,74.8,73.9,30.10,North,-999,-999.0,-999.0,97,12.09,,,29.16,meteohub,2013-07-19 05:54:00,
2013-07-19 01:59:00,74.8,73.9,30.10,North,-999,-999.0,-999.0,97,10.38,,,29.16,meteohub,2013-07-19 05:59:00,
2013-07-19 02:04:00,74.7,73.8,30.10,North,-999,-999.0,-999.0,97,10.70,,,30.00,meteohub,2013-07-19 06:04:00,
2013-07-19 02:09:00,74.7,73.8,30.09,North,-999,-999.0,-999.0,97,9.89,,,30.06,meteohub,2013-07-19 06:09:00,
2013-07-19 02:15:00,74.7,74.1,30.09,North,-999,-999.0,-999.0,98,12.21,,,32.65,meteohub,2013-07-19 06:15:00,
2013-07-19 02:20:00,74.8,74.3,30.09,North,-999,-999.0,-999.0,98,12.80,,,34.72,meteohub,2013-07-19 06:20:00,
2013-07-19 02:25:00,74.8,74.3,30.09,North,-999,-999.0,-999.0,98,12.30,,,37.02,meteohub,2013-07-19 06:25:00,
2013-07-19 02:30:00,74.8,74.3,30.09,North,-999,-999.0,-999.0,98,11.14,,,37.71,meteohub,2013-07-19 06:30:00,
2013-07-19 02:35:00,74.8,74.3,30.09,North,-999,-999.0,-999.0,98,11.79,,,38.39,meteohub,2013-07-19 06:35:00,
2013-07-19 02:40:00,74.7,74.1,30.09,North,-999,-999.0,-999.0,98,12.91,,,41.08,meteohub,2013-07-19 06:40:00,
2013-07-19 02:45:00,74.8,74.3,30.09,North,-999,-999.0,-999.0,98,12.78,,,41.94,meteohub,2013-07-19 06:45:00,
2013-07-19 02:50:00,74.8,74.3,30.09,North,-999,-999.0,-999.0,98,14.87,,,44.03,meteohub,2013-07-19 06:50:00,
2013-07-19 02:55:00,74.8,74.3,30.09,North,-999,-999.0,-999.0,98,16.93,,,46.09,meteohub,2013-07-19 06:55:00,
2013-07-19 03:01:00,74.8,74.3,30.09,North,-999,-999.0,-999.0,98,17.10,,,47.16,meteohub,2013-07-19 07:01:00,
2013-07-19 03:06:00,74.8,74.3,30.09,North,-999,-999.0,-999.0,98,19.13,,,49.75,meteohub,2013-07-19 07:06:00,
2013-07-19 03:11:00,74.8,74.3,30.09,North,-999,-999.0,-999.0,98,20.56,,,53.75,meteohub,2013-07-19 07:11:00,
2013-07-19 03:16:00,74.8,74.3,30.09,North,-999,-999.0,-999.0,98,20.91,,,55.96,meteohub,2013-07-19 07:16:00,
2013-07-19 03:21:00,75.0,74.5,30.09,North,-999,-999.0,-999.0,98,20.48,,,56.95,meteohub,2013-07-19 07:21:00,
2013-07-19 03:26:00,75.0,74.5,30.09,North,-999,-999.0,-999.0,98,22.58,,,59.89,meteohub,2013-07-19 07:26:00,
2013-07-19 03:31:00,75.0,74.5,30.09,North,-999,-999.0,-999.0,98,23.81,,,61.98,meteohub,2013-07-19 07:31:00,
2013-07-19 03:36:00,75.0,74.5,30.09,North,-999,-999.0,-999.0,98,26.69,,,66.14,meteohub,2013-07-19 07:36:00,
2013-07-19 03:41:00,75.0,74.7,30.09,North,-999,-999.0,-999.0,99,25.70,,,67.13,meteohub,2013-07-19 07:41:00,
2013-07-19 03:46:00,75.0,74.7,30.09,North,-999,-999.0,-999.0,99,24.56,,,67.83,meteohub,2013-07-19 07:46:00,
2013-07-19 03:51:00,75.0,74.7,30.09,North,-999,-999.0,-999.0,99,23.82,,,68.11,meteohub,2013-07-19 07:51:00,
2013-07-19 03:56:00,75.0,74.7,30.09,North,-999,-999.0,-999.0,99,21.46,,,68.11,meteohub,2013-07-19 07:56:00,
2013-07-19 04:01:00,75.0,74.7,30.09,North,-999,-999.0,-999.0,99,24.33,,,72.07,meteohub,2013-07-19 08:01:00,
2013-07-19 04:06:00,75.0,74.7,30.09,North,-999,-999.0,-999.0,99,21.34,,,72.41,meteohub,2013-07-19 08:06:00,
2013-07-19 04:12:00,75.2,74.8,30.09,North,-999,-999.0,-999.0,99,21.65,,,75.40,meteohub,2013-07-19 08:12:00,
2013-07-19 04:17:00,75.2,74.8,30.09,North,-999,-999.0,-999.0,99,20.02,,,76.97,meteohub,2013-07-19 08:17:00,
2013-07-19 04:22:00,75.2,74.8,30.09,North,-999,-999.0,-999.0,99,18.69,,,77.49,meteohub,2013-07-19 08:22:00,
2013-07-19 04:27:00,75.2,74.8,30.09,North,-999,-999.0,-999.0,99,18.20,,,79.77,meteohub,2013-07-19 08:27:00,
2013-07-19 04:32:00,75.2,74.8,30.08,North,-999,-999.0,-999.0,99,17.81,,,81.06,meteohub,2013-07-19 08:32:00,
2013-07-19 04:37:00,75.0,74.7,30.09,North,-999,-999.0,-999.0,99,15.00,,,81.56,meteohub,2013-07-19 08:37:00,
2013-07-19 04:42:00,75.0,74.7,30.08,North,-999,-999.0,-999.0,99,14.74,,,82.24,meteohub,2013-07-19 08:42:00,
2013-07-19 04:47:00,75.0,74.7,30.09,North,-999,-999.0,-999.0,99,15.43,,,83.53,meteohub,2013-07-19 08:47:00,
2013-07-19 04:52:00,75.0,74.7,30.09,North,-999,-999.0,-999.0,99,17.61,,,85.72,meteohub,2013-07-19 08:52:00,
2013-07-19 04:57:00,75.0,74.7,30.09,North,-999,-999.0,-999.0,99,17.49,,,87.91,meteohub,2013-07-19 08:57:00,
2013-07-19 05:02:00,75.0,74.7,30.08,North,-999,-999.0,-999.0,99,17.20,,,89.61,meteohub,2013-07-19 09:02:00,
2013-07-19 05:07:00,75.0,74.7,30.08,North,-999,-999.0,-999.0,99,19.10,,,91.51,meteohub,2013-07-19 09:07:00,
2013-07-19 05:12:00,75.0,74.7,30.08,North,-999,-999.0,-999.0,99,18.17,,,94.30,meteohub,2013-07-19 09:12:00,
2013-07-19 05:17:00,75.0,74.7,30.08,North,-999,-999.0,-999.0,99,21.39,,,98.55,meteohub,2013-07-19 09:17:00,
2013-07-19 05:22:00,75.0,74.7,30.08,North,-999,-999.0,-999.0,99,20.03,,,98.55,meteohub,2013-07-19 09:22:00,
2013-07-19 05:27:00,75.2,74.8,30.08,North,-999,-999.0,-999.0,99,19.10,,,99.15,meteohub,2013-07-19 09:27:00,
2013-07-19 05:32:00,75.2,74.8,30.08,North,-999,-999.0,-999.0,99,20.17,,,99.99,meteohub,2013-07-19 09:32:00,
2013-07-19 05:37:00,75.2,74.8,30.08,North,-999,-999.0,-999.0,99,20.43,,,99.99,meteohub,2013-07-19 09:37:00,
2013-07-19 05:42:00,75.2,74.8,30.09,North,-999,-999.0,-999.0,99,20.59,,,99.99,meteohub,2013-07-19 09:42:00,
2013-07-19 05:47:00,75.2,74.8,30.08,North,-999,-999.0,-999.0,99,20.55,,,99.99,meteohub,2013-07-19 09:47:00,
2013-07-19 05:52:00,75.2,74.8,30.08,North,-999,-999.0,-999.0,99,19.54,,,99.99,meteohub,2013-07-19 09:52:00,
2013-07-19 05:57:00,75.2,74.8,30.08,North,-999,-999.0,-999.0,99,20.89,,,99.99,meteohub,2013-07-19 09:57:00,
2013-07-19 06:02:00,75.2,74.8,30.08,North,-999,-999.0,-999.0,99,20.79,,,99.99,meteohub,2013-07-19 10:02:00,
2013-07-19 06:07:00,75.2,74.8,30.08,North,-999,-999.0,-999.0,99,19.30,,,99.99,meteohub,2013-07-19 10:07:00,
2013-07-19 06:12:00,75.2,74.8,30.07,North,-999,-999.0,-999.0,99,17.13,,,99.99,meteohub,2013-07-19 10:12:00,
2013-07-19 06:17:00,75.2,74.8,30.08,North,-999,-999.0,-999.0,99,14.59,,,99.99,meteohub,2013-07-19 10:17:00,
2013-07-19 06:22:00,75.0,74.7,30.08,North,-999,-999.0,-999.0,99,16.46,,,99.99,meteohub,2013-07-19 10:22:00,
2013-07-19 06:27:00,74.8,74.5,30.08,North,-999,-999.0,-999.0,99,15.19,,,99.99,meteohub,2013-07-19 10:27:00,
2013-07-19 06:32:00,74.7,74.3,30.09,North,-999,-999.0,-999.0,99,13.89,,,99.99,meteohub,2013-07-19 10:32:00,
2013-07-19 06:37:00,74.7,74.1,30.09,North,-999,-999.0,-999.0,98,14.31,,,99.99,meteohub,2013-07-19 10:37:00,
2013-07-19 06:42:00,75.2,74.7,30.09,NW,315,1.0,-999.0,98,14.06,,,99.99,meteohub,2013-07-19 10:42:00,
2013-07-19 06:47:00,75.6,75.0,30.09,North,0,0.0,2.0,98,15.06,,,99.99,meteohub,2013-07-19 10:47:00,
2013-07-19 06:52:00,76.1,75.6,30.09,NNW,338,0.0,2.0,98,14.41,,,99.99,meteohub,2013-07-19 10:52:00,
2013-07-19 06:57:00,76.5,75.6,30.09,NNW,338,0.0,2.0,97,13.44,,,99.99,meteohub,2013-07-19 10:57:00,
2013-07-19 07:02:00,76.5,75.6,30.09,SW,225,0.0,0.0,97,15.54,,,99.99,meteohub,2013-07-19 11:02:00,
2013-07-19 07:07:00,76.5,75.6,30.09,SW,225,0.0,0.0,97,16.10,,,99.99,meteohub,2013-07-19 11:07:00,
2013-07-19 07:12:00,77.0,75.4,30.09,WSW,248,0.0,0.0,95,15.69,,,99.99,meteohub,2013-07-19 11:12:00,
2013-07-19 07:17:00,77.0,75.2,30.09,WSW,248,0.0,0.0,94,18.73,,,99.99,meteohub,2013-07-19 11:17:00,
2013-07-19 07:22:00,77.0,74.8,30.09,WSW,248,0.0,0.0,93,20.80,,,99.99,meteohub,2013-07-19 11:22:00,
2013-07-19 07:27:00,77.2,74.7,30.09,WSW,248,0.0,0.0,92,21.45,,,99.99,meteohub,2013-07-19 11:27:00,
2013-07-19 07:32:00,77.2,73.9,30.10,WSW,248,0.0,0.0,90,27.72,,,99.99,meteohub,2013-07-19 11:32:00,
2013-07-19 07:37:00,77.2,73.8,30.10,WSW,248,0.0,0.0,89,31.09,,,99.99,meteohub,2013-07-19 11:37:00,
2013-07-19 07:42:00,77.2,73.8,30.10,WSW,248,0.0,0.0,89,36.74,,,99.99,meteohub,2013-07-19 11:42:00,
2013-07-19 07:47:00,77.4,73.9,30.10,WSW,248,0.0,0.0,89,42.48,,,99.99,meteohub,2013-07-19 11:47:00,
2013-07-19 07:52:00,77.2,73.8,30.10,North,-999,-999.0,0.0,89,42.22,,,99.99,meteohub,2013-07-19 11:52:00,
2013-07-19 07:57:00,77.4,73.6,30.11,North,-999,-999.0,0.0,88,44.47,,,99.99,meteohub,2013-07-19 11:57:00,
2013-07-19 08:02:00,77.2,73.4,30.11,North,-999,-999.0,0.0,88,46.49,,,99.99,meteohub,2013-07-19 12:02:00,
2013-07-19 08:07:00,77.2,73.4,30.11,North,-999,-999.0,-999.0,88,46.49,,,99.99,meteohub,2013-07-19 12:07:00,
2013-07-19 08:12:00,77.2,72.3,30.11,North,-999,-999.0,-999.0,85,45.50,,,99.99,meteohub,2013-07-19 12:12:00,
2013-07-19 08:17:00,77.7,72.1,30.12,North,-999,-999.0,-999.0,83,46.10,,,99.99,meteohub,2013-07-19 12:17:00,
2013-07-19 08:22:00,77.7,71.4,30.12,North,-999,-999.0,-999.0,81,46.13,,,99.99,meteohub,2013-07-19 12:22:00,
2013-07-19 08:27:00,77.7,71.4,30.12,North,-999,-999.0,-999.0,81,47.61,,,99.99,meteohub,2013-07-19 12:27:00,
2013-07-19 08:32:00,77.9,71.2,30.12,North,-999,-999.0,-999.0,80,43.48,,,99.99,meteohub,2013-07-19 12:32:00,
2013-07-19 08:37:00,77.5,70.2,30.12,North,-999,-999.0,-999.0,78,38.75,,,99.99,meteohub,2013-07-19 12:37:00,
2013-07-19 08:42:00,77.9,70.2,30.12,North,-999,-999.0,-999.0,77,37.02,,,99.99,meteohub,2013-07-19 12:42:00,
2013-07-19 08:47:00,77.7,70.0,30.12,North,-999,-999.0,-999.0,77,35.86,,,99.99,meteohub,2013-07-19 12:47:00,
2013-07-19 08:52:00,78.1,68.7,30.12,North,-999,-999.0,-999.0,73,39.27,,,99.99,meteohub,2013-07-19 12:52:00,
2013-07-19 08:57:00,77.9,67.3,30.12,North,-999,-999.0,-999.0,70,40.58,,,99.99,meteohub,2013-07-19 12:57:00,
2013-07-19 09:02:00,78.1,67.8,30.12,North,-999,-999.0,-999.0,71,40.38,,,99.99,meteohub,2013-07-19 13:02:00,
2013-07-19 09:07:00,78.3,68.9,30.13,North,-999,-999.0,-999.0,73,42.93,,,99.99,meteohub,2013-07-19 13:07:00,
2013-07-19 09:12:00,78.1,69.1,30.13,North,-999,-999.0,-999.0,74,45.11,,,99.99,meteohub,2013-07-19 13:12:00,
2013-07-19 09:17:00,78.1,70.0,30.13,North,-999,-999.0,-999.0,76,42.61,,,99.99,meteohub,2013-07-19 13:17:00,
2013-07-19 09:23:00,78.1,70.0,30.12,North,-999,-999.0,-999.0,76,41.76,,,99.99,meteohub,2013-07-19 13:23:00,
2013-07-19 09:28:00,77.9,69.8,30.12,North,-999,-999.0,-999.0,76,41.16,,,99.99,meteohub,2013-07-19 13:28:00,
2013-07-19 09:32:00,77.9,69.8,30.12,North,-999,-999.0,-999.0,76,44.27,,,99.99,meteohub,2013-07-19 13:32:00,
2013-07-19 09:37:00,77.7,68.7,30.12,North,-999,-999.0,-999.0,74,45.84,,,99.99,meteohub,2013-07-19 13:37:00,
2013-07-19 09:42:00,78.1,69.4,30.12,North,-999,-999.0,-999.0,75,45.06,,,99.99,meteohub,2013-07-19 13:42:00,
2013-07-19 09:47:00,77.9,68.9,30.12,North,-999,-999.0,-999.0,74,43.05,,,99.99,meteohub,2013-07-19 13:47:00,
2013-07-19 09:52:00,78.1,69.1,30.13,North,-999,-999.0,-999.0,74,42.11,,,99.99,meteohub,2013-07-19 13:52:00,
2013-07-19 09:57:00,78.1,68.7,30.13,North,-999,-999.0,-999.0,73,39.54,,,99.99,meteohub,2013-07-19 13:57:00,
2013-07-19 10:02:00,78.1,68.7,30.13,North,-999,-999.0,-999.0,73,39.01,,,99.99,meteohub,2013-07-19 14:02:00,
2013-07-19 10:07:00,78.3,68.9,30.12,North,-999,-999.0,-999.0,73,40.84,,,99.99,meteohub,2013-07-19 14:07:00,
2013-07-19 10:12:00,78.1,67.8,30.13,North,-999,-999.0,-999.0,71,37.77,,,99.99,meteohub,2013-07-19 14:12:00,
2013-07-19 10:17:00,78.1,67.8,30.13,North,-999,-999.0,-999.0,71,36.74,,,99.99,meteohub,2013-07-19 14:17:00,
2013-07-19 10:22:00,78.3,68.5,30.12,North,-999,-999.0,-999.0,72,34.68,,,99.99,meteohub,2013-07-19 14:22:00,
2013-07-19 10:27:00,77.9,68.2,30.12,North,-999,-999.0,-999.0,72,31.59,,,99.99,meteohub,2013-07-19 14:27:00,
2013-07-19 10:32:00,78.3,68.0,30.12,North,-999,-999.0,-999.0,71,30.21,,,99.99,meteohub,2013-07-19 14:32:00,
2013-07-19 10:37:00,77.9,68.2,30.12,North,-999,-999.0,-999.0,72,26.61,,,99.99,meteohub,2013-07-19 14:37:00,
2013-07-19 10:42:00,77.9,68.2,30.13,North,-999,-999.0,-999.0,72,23.68,,,99.99,meteohub,2013-07-19 14:42:00,
2013-07-19 10:47:00,78.4,67.5,30.13,North,-999,-999.0,-999.0,69,24.71,,,99.99,meteohub,2013-07-19 14:47:00,
2013-07-19 10:52:00,78.3,68.0,30.13,North,-999,-999.0,-999.0,71,23.94,,,99.99,meteohub,2013-07-19 14:52:00,
2013-07-19 10:57:00,78.3,68.9,30.12,North,-999,-999.0,-999.0,73,26.37,,,99.99,meteohub,2013-07-19 14:57:00,
2013-07-19 10:58:00,78.3,68.9,30.13,North,-999,-999.0,-999.0,73,26.37,,,99.99,meteohub,2013-07-19 14:58:00,
2013-07-19 11:03:00,78.3,68.0,30.13,North,-999,-999.0,-999.0,71,26.13,,,99.99,meteohub,2013-07-19 15:03:00,
2013-07-19 11:08:00,78.4,68.2,30.12,North,-999,-999.0,-999.0,71,26.28,,,99.99,meteohub,2013-07-19 15:08:00,
2013-07-19 11:13:00,78.1,67.8,30.12,North,-999,-999.0,-999.0,71,29.10,,,99.99,meteohub,2013-07-19 15:13:00,
2013-07-19 11:18:00,78.4,68.7,30.13,North,-999,-999.0,-999.0,72,30.77,,,99.99,meteohub,2013-07-19 15:18:00,
2013-07-19 11:23:00,78.3,68.5,30.13,North,-999,-999.0,-999.0,72,30.77,,,99.99,meteohub,2013-07-19 15:23:00,
2013-07-19 11:28:00,78.4,68.2,30.12,North,-999,-999.0,-999.0,71,28.70,,,99.99,meteohub,2013-07-19 15:28:00,
2013-07-19 11:33:00,78.3,67.6,30.12,North,-999,-999.0,-999.0,70,28.09,,,99.99,meteohub,2013-07-19 15:33:00,
2013-07-19 11:38:00,78.3,68.0,30.12,North,-999,-999.0,-999.0,71,28.70,,,99.99,meteohub,2013-07-19 15:38:00,
2013-07-19 11:43:00,78.1,67.5,30.12,North,-999,-999.0,-999.0,70,31.88,,,99.99,meteohub,2013-07-19 15:43:00,
2013-07-19 11:48:00,77.7,66.7,30.12,North,-999,-999.0,-999.0,69,29.47,,,99.99,meteohub,2013-07-19 15:48:00,
2013-07-19 11:54:00,78.4,67.5,30.12,North,-999,-999.0,-999.0,69,26.74,,,99.99,meteohub,2013-07-19 15:54:00,
2013-07-19 11:59:00,78.4,66.2,30.12,North,-999,-999.0,-999.0,66,25.24,,,99.99,meteohub,2013-07-19 15:59:00,
2013-07-19 12:04:00,78.3,66.0,30.12,North,-999,-999.0,-999.0,66,26.95,,,99.99,meteohub,2013-07-19 16:04:00,
2013-07-19 12:09:00,78.6,65.8,30.12,North,-999,-999.0,-999.0,65,23.65,,,99.99,meteohub,2013-07-19 16:09:00,
2013-07-19 12:14:00,78.1,65.8,30.11,North,-999,-999.0,-999.0,66,20.72,,,99.99,meteohub,2013-07-19 16:14:00,
2013-07-19 12:19:00,78.8,66.0,30.11,North,-999,-999.0,-999.0,65,22.37,,,99.99,meteohub,2013-07-19 16:19:00,
2013-07-19 12:24:00,78.4,65.3,30.11,North,-999,-999.0,-999.0,64,26.15,,,99.99,meteohub,2013-07-19 16:24:00,
2013-07-19 12:29:00,78.4,64.8,30.11,North,-999,-999.0,-999.0,63,27.08,,,99.99,meteohub,2013-07-19 16:29:00,
2013-07-19 12:34:00,77.9,63.9,30.10,North,-999,-999.0,-999.0,62,33.11,,,99.99,meteohub,2013-07-19 16:34:00,
2013-07-19 12:39:00,78.8,65.1,30.11,North,-999,-999.0,-999.0,63,36.60,,,99.99,meteohub,2013-07-19 16:39:00,
2013-07-19 12:44:00,78.8,63.7,30.10,North,-999,-999.0,-999.0,60,37.17,,,99.99,meteohub,2013-07-19 16:44:00,
2013-07-19 12:50:00,78.1,62.1,30.10,North,-999,-999.0,-999.0,58,41.39,,,99.99,meteohub,2013-07-19 16:50:00,
2013-07-19 12:55:00,78.6,60.1,30.10,North,-999,-999.0,-999.0,53,40.84,,,99.99,meteohub,2013-07-19 16:55:00,
2013-07-19 13:00:00,78.6,61.5,30.09,North,-999,-999.0,-999.0,56,48.86,,,99.99,meteohub,2013-07-19 17:00:00,
2013-07-19 13:05:00,78.6,61.5,30.10,North,-999,-999.0,-999.0,56,48.86,,,99.99,meteohub,2013-07-19 17:05:00,
2013-07-19 13:10:00,78.6,59.5,30.10,North,-999,-999.0,-999.0,52,47.63,,,99.99,meteohub,2013-07-19 17:10:00,
2013-07-19 13:15:00,78.3,59.7,30.10,North,-999,-999.0,-999.0,53,48.22,,,99.99,meteohub,2013-07-19 17:15:00,
2013-07-19 13:20:00,78.3,58.1,30.10,North,-999,-999.0,-999.0,50,49.82,,,99.99,meteohub,2013-07-19 17:20:00,
2013-07-19 13:25:00,78.3,59.2,30.10,North,-999,-999.0,-999.0,52,54.02,,,99.99,meteohub,2013-07-19 17:25:00,
2013-07-19 13:30:00,77.7,60.3,30.10,North,-999,-999.0,-999.0,55,53.36,,,99.99,meteohub,2013-07-19 17:30:00,
2013-07-19 13:35:00,78.4,60.4,30.10,North,-999,-999.0,-999.0,54,48.87,,,99.99,meteohub,2013-07-19 17:35:00,
2013-07-19 13:41:00,77.9,59.9,30.10,North,-999,-999.0,-999.0,54,48.86,,,99.99,meteohub,2013-07-19 17:41:00,
2013-07-19 13:46:00,77.9,59.9,30.10,North,-999,-999.0,-999.0,54,48.71,,,99.99,meteohub,2013-07-19 17:46:00,
2013-07-19 13:51:00,77.9,59.9,30.10,North,-999,-999.0,-999.0,54,51.13,,,99.99,meteohub,2013-07-19 17:51:00,
2013-07-19 13:56:00,78.3,60.8,30.10,North,-999,-999.0,-999.0,55,50.59,,,99.99,meteohub,2013-07-19 17:56:00,
2013-07-19 14:01:00,78.6,60.6,30.10,North,-999,-999.0,-999.0,54,48.31,,,99.99,meteohub,2013-07-19 18:01:00,
2013-07-19 14:06:00,78.6,60.6,30.10,North,-999,-999.0,-999.0,54,51.24,,,99.99,meteohub,2013-07-19 18:06:00,
2013-07-19 14:11:00,78.1,60.1,30.10,North,-999,-999.0,-999.0,54,52.88,,,99.99,meteohub,2013-07-19 18:11:00,
2013-07-19 14:16:00,78.1,61.2,30.10,North,-999,-999.0,-999.0,56,51.96,,,99.99,meteohub,2013-07-19 18:16:00,
2013-07-19 14:21:00,78.6,63.1,30.10,North,-999,-999.0,-999.0,59,55.04,,,99.99,meteohub,2013-07-19 18:21:00,
2013-07-19 14:26:00,78.3,64.2,30.09,North,-999,-999.0,-999.0,62,57.59,,,99.99,meteohub,2013-07-19 18:26:00,
2013-07-19 14:31:00,78.6,64.9,30.09,North,-999,-999.0,-999.0,63,56.75,,,99.99,meteohub,2013-07-19 18:31:00,
2013-07-19 14:36:00,79.0,64.4,30.10,North,-999,-999.0,-999.0,61,66.01,,,99.99,meteohub,2013-07-19 18:36:00,
2013-07-19 14:41:00,78.4,66.9,30.09,North,-999,-999.0,-999.0,68,78.89,,,99.99,meteohub,2013-07-19 18:41:00,
2013-07-19 14:47:00,77.9,67.3,30.09,North,-999,-999.0,-999.0,70,79.74,,,99.99,meteohub,2013-07-19 18:47:00,
2013-07-19 14:52:00,78.1,67.8,30.08,North,-999,-999.0,-999.0,71,89.27,,,99.99,meteohub,2013-07-19 18:52:00,
2013-07-19 14:57:00,78.1,68.4,30.08,North,-999,-999.0,-999.0,72,90.56,,,99.99,meteohub,2013-07-19 18:57:00,
2013-07-19 15:02:00,77.9,68.2,30.08,North,-999,-999.0,-999.0,72,92.41,,,99.99,meteohub,2013-07-19 19:02:00,
2013-07-19 15:07:00,77.7,68.4,30.08,North,-999,-999.0,-999.0,73,98.48,,,99.99,meteohub,2013-07-19 19:07:00,
2013-07-19 15:12:00,77.7,68.4,30.08,North,-999,-999.0,-999.0,73,99.27,,,99.99,meteohub,2013-07-19 19:12:00,
2013-07-19 15:17:00,77.7,67.6,30.08,North,-999,-999.0,-999.0,71,99.99,,,99.99,meteohub,2013-07-19 19:17:00,
2013-07-19 15:22:00,77.7,68.0,30.08,North,-999,-999.0,-999.0,72,96.17,,,99.99,meteohub,2013-07-19 19:22:00,
2013-07-19 15:27:00,77.7,68.4,30.08,North,-999,-999.0,-999.0,73,91.65,,,99.99,meteohub,2013-07-19 19:27:00,
2013-07-19 15:32:00,77.7,68.0,30.07,North,-999,-999.0,-999.0,72,92.22,,,99.99,meteohub,2013-07-19 19:32:00,
2013-07-19 15:37:00,78.1,67.8,30.07,North,-999,-999.0,-999.0,71,87.50,,,99.99,meteohub,2013-07-19 19:37:00,
2013-07-19 15:42:00,77.9,68.2,30.07,North,-999,-999.0,-999.0,72,78.06,,,99.99,meteohub,2013-07-19 19:42:00,
2013-07-19 15:47:00,77.9,68.2,30.08,North,-999,-999.0,-999.0,72,75.66,,,99.99,meteohub,2013-07-19 19:47:00,
2013-07-19 15:53:00,78.1,67.8,30.07,North,-999,-999.0,-999.0,71,70.64,,,99.99,meteohub,2013-07-19 19:53:00,
2013-07-19 15:58:00,78.1,68.4,30.08,North,-999,-999.0,-999.0,72,70.84,,,99.99,meteohub,2013-07-19 19:58:00,
2013-07-19 16:03:00,78.1,68.7,30.07,North,-999,-999.0,-999.0,73,71.48,,,99.99,meteohub,2013-07-19 20:03:00,
2013-07-19 16:08:00,78.1,68.7,30.08,North,-999,-999.0,-999.0,73,71.40,,,99.99,meteohub,2013-07-19 20:08:00,
2013-07-19 16:13:00,78.1,68.7,30.08,North,-999,-999.0,-999.0,73,69.99,,,99.99,meteohub,2013-07-19 20:13:00,
2013-07-19 16:18:00,78.1,68.7,30.08,North,-999,-999.0,-999.0,73,71.40,,,99.99,meteohub,2013-07-19 20:18:00,
2013-07-19 16:23:00,78.3,68.0,30.08,North,-999,-999.0,-999.0,71,72.41,,,99.99,meteohub,2013-07-19 20:23:00,
2013-07-19 16:28:00,79.0,68.4,30.08,WSW,248,0.0,-999.0,70,68.52,,,99.99,meteohub,2013-07-19 20:28:00,
2013-07-19 16:33:00,79.9,69.6,30.09,NNW,338,0.0,0.0,71,70.23,,,99.99,meteohub,2013-07-19 20:33:00,
2013-07-19 16:38:00,79.3,70.0,30.09,NNW,338,0.0,0.0,73,68.52,,,99.99,meteohub,2013-07-19 20:38:00,
2013-07-19 16:44:00,79.2,71.8,30.09,NNW,338,0.0,0.0,78,73.52,,,99.99,meteohub,2013-07-19 20:44:00,
2013-07-19 16:49:00,78.8,71.8,30.09,NNW,338,0.0,0.0,79,73.02,,,99.99,meteohub,2013-07-19 20:49:00,
2013-07-19 16:54:00,78.3,72.7,30.10,NNW,338,0.0,0.0,83,80.09,,,99.99,meteohub,2013-07-19 20:54:00,
2013-07-19 16:59:00,77.2,73.0,30.09,NNW,338,0.0,0.0,87,84.59,,,99.99,meteohub,2013-07-19 20:59:00,
2013-07-19 17:04:00,76.8,73.9,30.09,SW,225,0.0,0.0,91,82.42,,,99.99,meteohub,2013-07-19 21:04:00,
2013-07-19 17:09:00,76.6,74.5,30.09,SW,225,0.0,0.0,93,85.25,,,99.99,meteohub,2013-07-19 21:09:00,
2013-07-19 17:14:00,76.8,75.0,30.09,SW,225,0.0,0.0,94,82.22,,,99.99,meteohub,2013-07-19 21:14:00,
2013-07-19 17:19:00,76.6,74.8,30.08,SW,225,0.0,0.0,94,77.86,,,99.99,meteohub,2013-07-19 21:19:00,
2013-07-19 17:24:00,76.8,75.2,30.08,SW,225,0.0,0.0,95,79.41,,,99.99,meteohub,2013-07-19 21:24:00,
2013-07-19 17:29:00,76.8,75.6,30.07,SW,225,0.0,0.0,96,78.66,,,99.99,meteohub,2013-07-19 21:29:00,
2013-07-19 17:35:00,76.8,75.6,30.08,SW,225,0.0,0.0,96,74.36,,,99.99,meteohub,2013-07-19 21:35:00,
2013-07-19 17:40:00,76.6,75.4,30.08,WSW,248,0.0,0.0,96,69.41,,,99.99,meteohub,2013-07-19 21:40:00,
2013-07-19 17:45:00,77.0,75.7,30.08,WSW,248,0.0,0.0,96,61.30,,,99.99,meteohub,2013-07-19 21:45:00,
2013-07-19 17:50:00,77.0,75.7,30.08,WSW,248,0.0,0.0,96,45.61,,,99.99,meteohub,2013-07-19 21:50:00,
2013-07-19 17:55:00,76.8,75.6,30.07,WSW,248,0.0,0.0,96,36.97,,,99.99,meteohub,2013-07-19 21:55:00,
2013-07-19 18:00:00,76.8,75.6,30.07,WSW,248,0.0,0.0,96,31.28,,,99.99,meteohub,2013-07-19 22:00:00,
2013-07-19 18:05:00,76.8,75.6,30.07,WSW,248,0.0,0.0,96,26.65,,,99.99,meteohub,2013-07-19 22:05:00,
2013-07-19 18:10:00,77.0,75.7,30.07,WSW,248,0.0,0.0,96,24.87,,,99.99,meteohub,2013-07-19 22:10:00,
2013-07-19 18:15:00,77.2,75.9,30.07,North,-999,-999.0,0.0,96,21.90,,,99.99,meteohub,2013-07-19 22:15:00,
2013-07-19 18:20:00,77.2,75.6,30.06,North,-999,-999.0,0.0,95,21.97,,,99.99,meteohub,2013-07-19 22:20:00,
2013-07-19 18:26:00,77.2,75.6,30.06,North,-999,-999.0,-999.0,95,20.36,,,99.99,meteohub,2013-07-19 22:26:00,
2013-07-19 18:31:00,77.2,75.6,30.06,North,-999,-999.0,-999.0,95,16.30,,,99.99,meteohub,2013-07-19 22:31:00,
2013-07-19 18:36:00,77.4,75.7,30.06,North,-999,-999.0,-999.0,95,11.28,,,99.99,meteohub,2013-07-19 22:36:00,
2013-07-19 18:41:00,77.4,75.6,30.06,North,-999,-999.0,-999.0,94,10.33,,,99.99,meteohub,2013-07-19 22:41:00,
2013-07-19 18:46:00,77.5,75.7,30.06,North,-999,-999.0,-999.0,94,8.49,,,99.99,meteohub,2013-07-19 22:46:00,
2013-07-19 18:51:00,77.5,75.4,30.06,North,-999,-999.0,-999.0,93,8.33,,,99.99,meteohub,2013-07-19 22:51:00,
2013-07-19 18:56:00,77.9,75.0,30.05,North,-999,-999.0,-999.0,91,5.88,,,99.99,meteohub,2013-07-19 22:56:00,
2013-07-19 19:01:00,77.4,73.9,30.05,North,-999,-999.0,-999.0,89,6.04,,,99.99,meteohub,2013-07-19 23:01:00,
2013-07-19 19:06:00,77.7,73.9,30.06,North,-999,-999.0,-999.0,88,6.04,,,99.99,meteohub,2013-07-19 23:06:00,
2013-07-19 19:12:00,77.9,73.8,30.06,North,-999,-999.0,-999.0,87,5.63,,,99.99,meteohub,2013-07-19 23:12:00,
2013-07-19 19:17:00,77.9,73.4,30.06,North,-999,-999.0,-999.0,86,5.88,,,99.99,meteohub,2013-07-19 23:17:00,
2013-07-19 19:22:00,77.7,72.9,30.06,WSW,248,0.0,-999.0,85,5.50,,,99.99,meteohub,2013-07-19 23:22:00,
2013-07-19 19:27:00,77.7,73.2,30.07,WSW,248,0.0,0.0,86,4.84,,,99.99,meteohub,2013-07-19 23:27:00,
2013-07-19 19:32:00,77.7,73.6,30.07,WSW,248,0.0,0.0,87,4.62,,,99.99,meteohub,2013-07-19 23:32:00,
2013-07-19 19:37:00,77.7,73.9,30.07,WSW,248,0.0,0.0,88,4.61,,,99.99,meteohub,2013-07-19 23:37:00,
2013-07-19 19:42:00,77.7,73.6,30.07,WSW,248,0.0,0.0,87,5.55,,,99.99,meteohub,2013-07-19 23:42:00,
2013-07-19 19:47:00,77.5,73.8,30.07,SW,225,0.0,0.0,88,7.16,,,99.99,meteohub,2013-07-19 23:47:00,
2013-07-19 19:52:00,77.5,73.8,30.07,SW,225,0.0,0.0,88,9.25,,,99.99,meteohub,2013-07-19 23:52:00,
2013-07-19 19:57:00,77.5,73.8,30.07,SW,225,0.0,0.0,88,9.11,,,99.99,meteohub,2013-07-19 23:57:00,
2013-07-19 20:02:00,77.5,73.8,30.07,NNW,338,0.0,0.0,88,9.85,,,99.99,meteohub,2013-07-20 00:02:00,
2013-07-19 20:08:00,77.4,73.9,30.07,NNW,338,0.0,0.0,89,12.90,,,99.99,meteohub,2013-07-20 00:08:00,
2013-07-19 20:13:00,77.4,73.9,30.08,North,0,0.0,0.0,89,14.34,,,99.99,meteohub,2013-07-20 00:13:00,
2013-07-19 20:18:00,77.2,73.9,30.08,WNW,293,0.0,0.0,90,15.58,,,99.99,meteohub,2013-07-20 00:18:00,
2013-07-19 20:23:00,76.8,73.6,30.08,West,270,2.0,0.0,90,19.12,,,99.99,meteohub,2013-07-20 00:23:00,
2013-07-19 20:28:00,76.6,73.8,30.08,West,270,0.0,2.0,91,21.02,,,99.99,meteohub,2013-07-20 00:28:00,
2013-07-19 20:33:00,76.6,73.8,30.09,West,270,0.0,2.0,91,25.18,,,99.99,meteohub,2013-07-20 00:33:00,
2013-07-19 20:38:00,76.5,73.9,30.09,North,-999,-999.0,2.0,92,27.78,,,99.99,meteohub,2013-07-20 00:38:00,
2013-07-19 20:43:00,76.3,73.8,30.09,North,-999,-999.0,0.0,92,29.52,,,99.99,meteohub,2013-07-20 00:43:00,
2013-07-19 20:48:00,76.3,74.1,30.09,North,-999,-999.0,0.0,93,34.25,,,99.99,meteohub,2013-07-20 00:48:00,
2013-07-19 20:54:00,76.1,73.9,30.09,North,-999,-999.0,-999.0,93,37.98,,,99.99,meteohub,2013-07-20 00:54:00,
2013-07-19 20:59:00,76.1,73.9,30.09,North,-999,-999.0,-999.0,93,37.49,,,99.99,meteohub,2013-07-20 00:59:00,
2013-07-19 21:04:00,75.9,73.8,30.10,North,-999,-999.0,-999.0,93,40.55,,,99.99,meteohub,2013-07-20 01:04:00,
2013-07-19 21:09:00,75.7,73.6,30.10,North,-999,-999.0,-999.0,93,46.38,,,99.99,meteohub,2013-07-20 01:09:00,
2013-07-19 21:14:00,75.7,73.6,30.10,North,-999,-999.0,-999.0,93,46.85,,,99.99,meteohub,2013-07-20 01:14:00,
2013-07-19 21:19:00,75.6,73.4,30.09,North,-999,-999.0,-999.0,93,53.30,,,99.99,meteohub,2013-07-20 01:19:00,
2013-07-19 21:24:00,75.6,73.4,30.10,North,-999,-999.0,-999.0,93,54.46,,,99.99,meteohub,2013-07-20 01:24:00,
2013-07-19 21:29:00,75.6,73.4,30.10,North,-999,-999.0,-999.0,93,55.94,,,99.99,meteohub,2013-07-20 01:29:00,
2013-07-19 21:34:00,75.4,72.9,30.09,North,-999,-999.0,-999.0,92,57.97,,,99.99,meteohub,2013-07-20 01:34:00,
2013-07-19 21:39:00,75.4,73.2,30.10,North,-999,-999.0,-999.0,93,57.69,,,99.99,meteohub,2013-07-20 01:39:00,
2013-07-19 21:44:00,75.4,73.2,30.10,North,-999,-999.0,-999.0,93,55.06,,,99.99,meteohub,2013-07-20 01:44:00,
2013-07-19 21:49:00,75.4,73.2,30.11,North,-999,-999.0,-999.0,93,50.06,,,99.99,meteohub,2013-07-20 01:49:00,
2013-07-19 21:55:00,75.6,73.4,30.10,North,-999,-999.0,-999.0,93,49.06,,,99.99,meteohub,2013-07-20 01:55:00,
2013-07-19 22:00:00,75.6,73.4,30.10,North,-999,-999.0,-999.0,93,51.08,,,99.99,meteohub,2013-07-20 02:00:00,
2013-07-19 22:05:00,75.6,73.8,30.11,North,-999,-999.0,-999.0,94,47.06,,,99.99,meteohub,2013-07-20 02:05:00,
2013-07-19 22:10:00,75.6,73.8,30.11,North,-999,-999.0,-999.0,94,43.23,,,99.99,meteohub,2013-07-20 02:10:00,
2013-07-19 22:15:00,75.6,73.8,30.11,North,-999,-999.0,-999.0,94,35.06,,,99.99,meteohub,2013-07-20 02:15:00,
2013-07-19 22:20:00,75.4,73.6,30.11,North,-999,-999.0,-999.0,94,31.45,,,99.99,meteohub,2013-07-20 02:20:00,
2013-07-19 22:25:00,75.6,73.8,30.11,North,-999,-999.0,-999.0,94,31.25,,,99.99,meteohub,2013-07-20 02:25:00,
2013-07-19 22:30:00,75.6,73.8,30.12,North,-999,-999.0,-999.0,94,28.28,,,99.99,meteohub,2013-07-20 02:30:00,
2013-07-19 22:35:00,75.6,73.8,30.12,North,-999,-999.0,-999.0,94,29.59,,,99.99,meteohub,2013-07-20 02:35:00,
2013-07-19 22:40:00,75.4,73.6,30.12,North,-999,-999.0,-999.0,94,30.63,,,99.99,meteohub,2013-07-20 02:40:00,
2013-07-19 22:45:00,75.4,73.6,30.12,North,-999,-999.0,-999.0,94,30.96,,,99.99,meteohub,2013-07-20 02:45:00,
2013-07-19 22:50:00,75.2,73.0,30.12,North,-999,-999.0,-999.0,93,31.94,,,99.99,meteohub,2013-07-20 02:50:00,
2013-07-19 22:56:00,75.2,73.0,30.12,North,-999,-999.0,-999.0,93,29.08,,,99.99,meteohub,2013-07-20 02:56:00,
2013-07-19 23:01:00,75.2,73.0,30.12,North,-999,-999.0,-999.0,93,28.54,,,99.99,meteohub,2013-07-20 03:01:00,
2013-07-19 23:06:00,75.2,73.0,30.12,North,-999,-999.0,-999.0,93,29.28,,,99.99,meteohub,2013-07-20 03:06:00,
2013-07-19 23:11:00,75.2,73.0,30.12,North,-999,-999.0,-999.0,93,30.37,,,99.99,meteohub,2013-07-20 03:11:00,
2013-07-19 23:16:00,75.2,73.0,30.12,North,-999,-999.0,-999.0,93,28.94,,,99.99,meteohub,2013-07-20 03:16:00,
2013-07-19 23:21:00,75.0,72.9,30.12,North,-999,-999.0,-999.0,93,28.12,,,99.99,meteohub,2013-07-20 03:21:00,
2013-07-19 23:26:00,75.0,72.9,30.12,North,-999,-999.0,-999.0,93,25.78,,,99.99,meteohub,2013-07-20 03:26:00,
2013-07-19 23:31:00,75.0,72.9,30.12,North,-999,-999.0,-999.0,93,24.85,,,99.99,meteohub,2013-07-20 03:31:00,
2013-07-19 23:36:00,75.0,72.9,30.12,North,-999,-999.0,-999.0,93,22.98,,,99.99,meteohub,2013-07-20 03:36:00,
2013-07-19 23:41:00,75.2,73.4,30.12,North,-999,-999.0,-999.0,94,19.49,,,99.99,meteohub,2013-07-20 03:41:00,
2013-07-19 23:46:00,75.2,73.4,30.12,North,-999,-999.0,-999.0,94,17.65,,,99.99,meteohub,2013-07-20 03:46:00,
2013-07-19 23:51:00,75.2,73.4,30.12,North,-999,-999.0,-999.0,94,18.05,,,99.99,meteohub,2013-07-20 03:51:00,
2013-07-19 23:57:00,75.2,73.4,30.12,North,-999,-999.0,-999.0,94,16.95,,,99.99,meteohub,2013-07-20 03:57:00,